TimeMDT,TemperatureF,Dew PointF,Humidity,Sea Level PressureIn,VisibilityMPH,Wind Direction,Wind SpeedMPH,Gust SpeedMPH,PrecipitationIn,Events,Conditions,WindDirDegrees,DateUTC
12:51 AM,64.0,46.0,52,29.99,10.0,North,4.6,-,N/A,,Clear,10,2013-07-27 06:51:00
1:51 AM,60.1,46.0,60,29.99,10.0,Calm,Calm,-,N/A,,Clear,0,2013-07-27 07:51:00
2:51 AM,60.1,45.0,57,29.99,10.0,Calm,Calm,-,N/A,,Clear,0,2013-07-27 08:51:00
3:51 AM,62.1,44.1,52,29.97,10.0,North,3.5,-,N/A,,Partly Cloudy,360,2013-07-27 09:51:00
4:51 AM,60.1,45.0,57,29.97,10.0,Calm,Calm,-,N/A,,Mostly Cloudy,0,2013-07-27 10:51:00
5:51 AM,55.0,44.1,67,29.99,10.0,Calm,Calm,-,N/A,,Clear,0,2013-07-27 11:51:00
6:51 AM,55.0,43.0,64,30.00,10.0,Calm,Calm,-,N/A,,Scattered Clouds,0,2013-07-27 12:51:00
7:51 AM,55.9,46.0,69,30.00,10.0,Calm,Calm,-,N/A,,Clear,0,2013-07-27 13:51:00
8:51 AM,64.0,41.0,43,29.99,10.0,North,3.5,-,N/A,,Overcast,350,2013-07-27 14:51:00
9:51 AM,66.0,43.0,43,29.99,10.0,NW,3.5,-,N/A,,Scattered Clouds,320,2013-07-27 15:51:00
10:51 AM,75.0,39.0,27,29.95,10.0,Calm,Calm,-,N/A,,Overcast,0,2013-07-27 16:51:00
11:51 AM,77.0,34.0,21,29.96,10.0,SW,4.6,-,N/A,,Mostly Cloudy,220,2013-07-27 17:51:00
12:51 PM,82.0,25.0,12,29.93,10.0,West,8.1,-,N/A,,Mostly Cloudy,270,2013-07-27 18:51:00
1:51 PM,82.9,24.1,12,29.92,10.0,West,6.9,-,N/A,,Clear,280,2013-07-27 19:51:00
2:51 PM,82.0,25.0,12,29.91,10.0,West,9.2,-,N/A,,Partly Cloudy,270,2013-07-27 20:51:00
3:51 PM,84.0,28.0,13,29.87,10.0,WSW,6.9,-,N/A,,Partly Cloudy,250,2013-07-27 21:51:00
4:51 PM,84.9,27.0,12,29.85,10.0,West,13.8,32.2,N/A,,Clear,280,2013-07-27 22:51:00
5:51 PM,82.9,23.0,11,29.85,10.0,WSW,12.7,24.2,N/A,,Clear,250,2013-07-27 23:51:00
6:51 PM,82.0,14.0,8,29.83,10.0,Calm,Calm,-,N/A,,Clear,0,2013-07-28 00:51:00
7:51 PM,81.0,27.0,14,29.83,10.0,West,6.9,-,N/A,,Clear,280,2013-07-28 01:51:00
8:51 PM,75.9,28.9,18,29.83,10.0,West,3.5,-,N/A,,Clear,270,2013-07-28 02:51:00
9:51 PM,72.0,34.0,25,29.85,10.0,North,5.8,-,N/A,,Clear,10,2013-07-28 03:51:00
10:51 PM,70.0,37.9,31,29.84,10.0,North,10.4,-,N/A,,Clear,350,2013-07-28 04:51:00
11:51 PM,68.0,37.9,33,29.84,10.0,NNW,8.1,-,N/A,,Clear,340,2013-07-28 05:51:00